Retour au catalogue

DELTA 1 DEB

ActifLEO
NORAD 7135·DEBRIS·🇺🇸 United States

Lancé Nov 6, 1973 depuis Vandenberg Space Force Base

Loading…

Prochains Passages (prochaines 24 heures)

TLE

FraisSource: Space-Track

Époque: Sep 14, 2026, 03:36 UTC

1 07135U 73086CZ  26257.15020988  .00000313  00000-0  19106-2 0  9991
2 07135 102.2377 232.0735 0131024 237.1531 121.6875 12.64283939424855

Suivez DELTA 1 DEB en temps réel avec AllMySat

Download on the App Store